Simultaneous Nadir Overpasses (SNOs) Predictions

Prediction of SNOs between LANDSAT-8 and NOAA-19 Satellite Orbit:

Table of predicted SNOs for the next 14.0 days since TLE Epoch: 3/16/2024
Index Date (LANDSAT-8) Time (LANDSAT-8) Lat,Lon (LANDSAT-8) SZA (LANDSAT-8 ) Date (NOAA-19) Time (NOAA-19) Lat,Lon (NOAA-19) SZA (NOAA-19 ) Distance(km) Time Diff (sec)
1 03/17/2024 14:00:48 -80.78,-175.29 96.78 03/17/2024 13:59:43 -80.79,-175.21 96.79 1.71 65
2 03/17/2024 14:50:13 80.82, -7.21 83.28 03/17/2024 14:50:45 80.82, -7.11 83.30 1.73 32
3 03/19/2024 20:23:57 -80.78, 88.89 97.67 03/19/2024 20:22:48 -80.78, 88.92 97.68 0.87 69
4 03/19/2024 21:13:22 80.81,-103.06 82.39 03/19/2024 21:13:50 80.81,-102.98 82.41 1.35 28
5 03/22/2024 02:47:05 -80.79, -6.71 98.51 03/22/2024 02:45:52 -80.79, -6.64 98.54 1.34 73
6 03/22/2024 03:36:31 80.80, 160.98 81.49 03/22/2024 03:36:55 80.80, 161.07 81.51 1.87 24
7 03/24/2024 09:59:39 80.80, 65.24 80.62 03/24/2024 09:59:59 80.81, 65.42 80.65 3.25 20
8 03/26/2024 16:22:47 80.80, -30.61 79.74 03/26/2024 16:23:04 80.79, -30.66 79.74 1.05 17



Historial Predications of SNOs between LANDSAT-8 and NOAA-19
